| time (UTC) | temp F | wind direction | speed MPH | gust MPH | rain 1hr in | rain 24hr in | rain mn in | humidity % | barometer mb |
| 20260904030003 | 79 | 250 | 0.0 | 1.0 | 0.00 | 0.00 | 0.00 | 61 | 1016.6 |
| 20260904025504 | 78 | 244 | 0.0 | 1.0 | 0.00 | 0.00 | 0.00 | 60 | 1016.6 |
| 20260904025003 | 78 | 204 | 0.0 | 1.0 | 0.00 | 0.00 | 0.00 | 60 | 1016.6 |
| 20260904024504 | 78 | 199 | 0.0 | 1.0 | 0.00 | 0.00 | 0.00 | 60 | 1016.6 |
| 20260904024004 | 78 | 194 | 0.0 | 1.0 | 0.00 | 0.00 | 0.00 | 61 | 1016.6 |
| 20260904023504 | 78 | 202 | 0.0 | 1.0 | 0.00 | 0.00 | 0.00 | 60 | 1016.6 |
| 20260904023003 | 78 | 254 | 0.0 | 2.0 | 0.00 | 0.00 | 0.00 | 61 | 1016.6 |
| 20260904022504 | 78 | 259 | 1.0 | 3.0 | 0.00 | 0.00 | 0.00 | 64 | 1016.6 |
| 20260904022003 | 78 | 256 | 1.0 | 3.0 | 0.00 | 0.00 | 0.00 | 67 | 1016.4 |
| 20260904021503 | 78 | 255 | 1.0 | 3.0 | 0.00 | 0.00 | 0.00 | 67 | 1016.6 |
| 20260904021003 | 78 | 213 | 1.0 | 3.0 | 0.00 | 0.00 | 0.00 | 67 | 1016.5 |
| 20260904020715 | 78 | 199 | 1.0 | 2.0 | 0.00 | 0.00 | 0.00 | 66 | 1016.5 |
| 20260904020004 | 78 | 215 | 1.0 | 3.0 | 0.00 | 0.00 | 0.00 | 66 | 1016.5 |
| 20260904015716 | 79 | 191 | 1.0 | 3.0 | 0.00 | 0.00 | 0.00 | 66 | 1016.6 |
| 20260904015003 | 79 | 212 | 1.0 | 3.0 | 0.00 | 0.00 | 0.00 | 66 | 1016.6 |
| 20260904014503 | 79 | 218 | 1.0 | 3.0 | 0.00 | 0.00 | 0.00 | 65 | 1016.5 |
| 20260904014003 | 79 | 180 | 0.0 | 3.0 | 0.00 | 0.00 | 0.00 | 65 | 1016.5 |
| 20260904013503 | 79 | 179 | 1.0 | 3.0 | 0.00 | 0.00 | 0.00 | 65 | 1016.5 |
| 20260904013004 | 78 | 199 | 0.0 | 1.0 | 0.00 | 0.00 | 0.00 | 66 | 1016.4 |
| 20260904012503 | 78 | 207 | 1.0 | 3.0 | 0.00 | 0.00 | 0.00 | 68 | 1016.7 |
| 20260904012004 | 78 | 197 | 1.0 | 3.0 | 0.00 | 0.00 | 0.00 | 69 | 1016.6 |
| 20260904011504 | 78 | 198 | 1.0 | 2.0 | 0.00 | 0.00 | 0.00 | 70 | 1016.5 |
| 20260904011004 | 78 | 183 | 1.0 | 3.0 | 0.00 | 0.00 | 0.00 | 70 | 1016.6 |
| 20260904010503 | 78 | 166 | 1.0 | 3.0 | 0.00 | 0.00 | 0.00 | 72 | 1016.7 |
| 20260904010003 | 79 | 177 | 0.0 | 2.0 | 0.00 | 0.00 | 0.00 | 72 | 1016.6 |
| 20260904005504 | 78 | 193 | 0.0 | 1.0 | 0.00 | 0.00 | 0.00 | 73 | 1016.6 |
| 20260904005004 | 78 | 189 | 0.0 | 1.0 | 0.00 | 0.00 | 0.00 | 73 | 1016.7 |
| 20260904004504 | 79 | 189 | 0.0 | 1.0 | 0.00 | 0.00 | 0.00 | 73 | 1016.6 |
| 20260904004004 | 79 | 183 | 0.0 | 1.0 | 0.00 | 0.00 | 0.00 | 73 | 1016.6 |
| 20260904003503 | 79 | 176 | 1.0 | 2.0 | 0.00 | 0.00 | 0.00 | 73 | 1016.9 |
| 20260904003004 | 79 | 179 | 1.0 | 2.0 | 0.00 | 0.00 | 0.00 | 74 | 1016.7 |
| 20260904002503 | 79 | 193 | 0.0 | 1.0 | 0.00 | 0.00 | 0.00 | 74 | 1016.7 |
| 20260904002004 | 79 | 193 | 0.0 | 2.0 | 0.00 | 0.00 | 0.00 | 74 | 1016.8 |
| 20260904001504 | 79 | 194 | 0.0 | 2.0 | 0.00 | 0.00 | 0.00 | 73 | 1016.7 |
| 20260904001214 | 79 | 200 | 0.0 | 1.0 | 0.00 | 0.00 | 0.00 | 73 | 1016.8 |
| 20260904000503 | 79 | 242 | 0.0 | 2.0 | 0.00 | 0.00 | 0.00 | 73 | 1017.0 |
| 20260904000003 | 79 | 213 | 0.0 | 1.0 | 0.00 | 0.00 | 0.00 | 73 | 1017.2 |
| 20260903235504 | 79 | 193 | 0.0 | 1.0 | 0.00 | 0.00 | 0.00 | 73 | 1017.1 |
| 20260903235216 | 79 | 203 | 0.0 | 1.0 | 0.00 | 0.00 | 0.00 | 72 | 1016.9 |
| 20260903234503 | 79 | 227 | 0.0 | 1.0 | 0.00 | 0.00 | 0.00 | 72 | 1017.0 |
| 20260903234216 | 79 | 230 | 0.0 | 1.0 | 0.00 | 0.00 | 0.00 | 72 | 1017.2 |
| 20260903233503 | 80 | 192 | 0.0 | 1.0 | 0.00 | 0.00 | 0.00 | 70 | 1017.1 |
| 20260903233003 | 80 | 242 | 0.0 | 1.0 | 0.00 | 0.00 | 0.00 | 70 | 1017.1 |
| 20260903232503 | 80 | 272 | 0.0 | 1.0 | 0.00 | 0.00 | 0.00 | 69 | 1017.1 |
| 20260903232003 | 80 | 256 | 0.0 | 2.0 | 0.00 | 0.00 | 0.00 | 69 | 1017.0 |
| 20260903231504 | 80 | 258 | 0.0 | 2.0 | 0.00 | 0.00 | 0.00 | 69 | 1017.0 |
| 20260903230503 | 80 | 0 | 0.0 | 0.0 | 0.00 | 0.00 | 0.00 | 72 | 1017.0 |
| 20260903230215 | 81 | 0 | 0.0 | 0.0 | 0.00 | 0.00 | 0.00 | 72 | 1017.0 |
| 20260903225503 | 81 | 0 | 0.0 | 0.0 | 0.00 | 0.00 | 0.00 | 72 | 1017.0 |
| 20260903225004 | 80 | 0 | 0.0 | 0.0 | 0.00 | 0.00 | 0.00 | 73 | 1017.1 |
| 20260903224503 | 81 | 0 | 0.0 | 0.0 | 0.00 | 0.00 | 0.00 | 74 | 1017.0 |
| 20260903224004 | 81 | 220 | 0.0 | 1.0 | 0.00 | 0.00 | 0.00 | 74 | 1017.1 |
| 20260903223503 | 81 | 220 | 0.0 | 1.0 | 0.00 | 0.00 | 0.00 | 74 | 1017.1 |
| 20260903223003 | 81 | 0 | 0.0 | 0.0 | 0.00 | 0.00 | 0.00 | 74 | 1017.0 |
| 20260903222716 | 81 | 225 | 0.0 | 0.0 | 0.00 | 0.00 | 0.00 | 74 | 1016.9 |
| 20260903222003 | 81 | 190 | 0.0 | 1.0 | 0.00 | 0.00 | 0.00 | 73 | 1017.0 |
| 20260903221504 | 82 | 182 | 0.0 | 1.0 | 0.00 | 0.00 | 0.00 | 73 | 1017.0 |
| 20260903221215 | 82 | 182 | 0.0 | 1.0 | 0.00 | 0.00 | 0.00 | 72 | 1016.8 |
| 20260903220503 | 81 | 189 | 0.0 | 1.0 | 0.00 | 0.00 | 0.00 | 72 | 1016.8 |
| 20260903220006 | 82 | 198 | 0.0 | 1.0 | 0.00 | 0.00 | 0.00 | 75 | 1016.6 |
| 20260903215504 | 82 | 0 | 0.0 | 0.0 | 0.00 | 0.00 | 0.00 | 75 | 1016.7 |
| 20260903215004 | 82 | 0 | 0.0 | 0.0 | 0.00 | 0.00 | 0.00 | 75 | 1016.8 |
| 20260903214504 | 82 | 226 | 0.0 | 1.0 | 0.00 | 0.00 | 0.00 | 75 | 1016.8 |
| 20260903214004 | 82 | 226 | 0.0 | 1.0 | 0.00 | 0.00 | 0.00 | 74 | 1016.8 |
| 20260903213503 | 82 | 192 | 0.0 | 1.0 | 0.00 | 0.00 | 0.00 | 74 | 1016.6 |
| 20260903213004 | 82 | 201 | 0.0 | 1.0 | 0.00 | 0.00 | 0.00 | 74 | 1016.7 |
| 20260903212504 | 82 | 202 | 0.0 | 1.0 | 0.00 | 0.00 | 0.00 | 74 | 1016.6 |
| 20260903212004 | 82 | 0 | 0.0 | 0.0 | 0.00 | 0.00 | 0.00 | 75 | 1016.6 |
| 20260903211713 | 82 | 0 | 0.0 | 0.0 | 0.00 | 0.00 | 0.00 | 75 | 1016.6 |
| 20260903211003 | 82 | 237 | 0.0 | 1.0 | 0.00 | 0.00 | 0.00 | 75 | 1016.6 |
| 20260903210713 | 82 | 247 | 0.0 | 1.0 | 0.00 | 0.00 | 0.00 | 75 | 1016.9 |
| 20260903210004 | 82 | 178 | 0.0 | 1.0 | 0.00 | 0.00 | 0.00 | 76 | 1016.8 |
| 20260903205503 | 82 | 147 | 0.0 | 1.0 | 0.00 | 0.00 | 0.00 | 76 | 1016.9 |
| 20260903205003 | 82 | 109 | 1.0 | 3.0 | 0.00 | 0.00 | 0.00 | 76 | 1016.8 |
| 20260903204504 | 82 | 97 | 1.0 | 3.0 | 0.00 | 0.00 | 0.00 | 76 | 1016.9 |
| 20260903204004 | 82 | 91 | 1.0 | 3.0 | 0.00 | 0.00 | 0.00 | 76 | 1017.0 |
| 20260903203504 | 82 | 92 | 1.0 | 3.0 | 0.00 | 0.00 | 0.00 | 76 | 1016.9 |
| 20260903203003 | 82 | 81 | 0.0 | 2.0 | 0.00 | 0.00 | 0.00 | 75 | 1016.9 |
| 20260903202717 | 82 | 88 | 0.0 | 2.0 | 0.00 | 0.00 | 0.00 | 75 | 1016.7 |
| 20260903202004 | 82 | 108 | 1.0 | 6.0 | 0.00 | 0.00 | 0.00 | 74 | 1016.9 |
| 20260903201503 | 82 | 94 | 2.0 | 7.0 | 0.00 | 0.00 | 0.00 | 74 | 1017.1 |
| 20260903201003 | 82 | 89 | 2.0 | 7.0 | 0.00 | 0.00 | 0.00 | 74 | 1016.8 |
| 20260903200714 | 82 | 88 | 2.0 | 7.0 | 0.00 | 0.00 | 0.00 | 74 | 1016.8 |
| 20260903200004 | 83 | 87 | 2.0 | 9.0 | 0.00 | 0.00 | 0.00 | 74 | 1017.0 |
| 20260903195504 | 82 | 78 | 2.0 | 9.0 | 0.00 | 0.00 | 0.00 | 74 | 1016.8 |
| 20260903195003 | 83 | 57 | 1.0 | 4.0 | 0.00 | 0.00 | 0.00 | 74 | 1016.9 |
| 20260903194504 | 82 | 56 | 2.0 | 6.0 | 0.00 | 0.00 | 0.00 | 74 | 1016.9 |
| 20260903194004 | 83 | 69 | 2.0 | 6.0 | 0.00 | 0.00 | 0.00 | 75 | 1016.8 |
| 20260903193504 | 83 | 69 | 3.0 | 11.0 | 0.00 | 0.00 | 0.00 | 75 | 1016.8 |
| 20260903193003 | 83 | 63 | 2.0 | 11.0 | 0.00 | 0.00 | 0.00 | 75 | 1016.8 |
| 20260903192504 | 83 | 68 | 2.0 | 7.0 | 0.00 | 0.00 | 0.00 | 75 | 1016.6 |
| 20260903192216 | 83 | 70 | 2.0 | 7.0 | 0.00 | 0.00 | 0.00 | 75 | 1016.8 |
| 20260903191503 | 83 | 69 | 2.0 | 7.0 | 0.00 | 0.00 | 0.00 | 75 | 1016.7 |
| 20260903191004 | 83 | 59 | 3.0 | 13.0 | 0.00 | 0.00 | 0.00 | 74 | 1016.5 |
| 20260903190504 | 83 | 44 | 3.0 | 13.0 | 0.00 | 0.00 | 0.00 | 73 | 1016.5 |
| 20260903190004 | 83 | 39 | 2.0 | 6.0 | 0.00 | 0.00 | 0.00 | 72 | 1016.5 |
| 20260903185503 | 83 | 72 | 2.0 | 7.0 | 0.00 | 0.00 | 0.00 | 72 | 1016.4 |
| 20260903185004 | 83 | 91 | 3.0 | 7.0 | 0.00 | 0.00 | 0.00 | 73 | 1016.3 |
| 20260903184504 | 83 | 86 | 3.0 | 11.0 | 0.00 | 0.00 | 0.00 | 74 | 1016.2 |
| 20260903184003 | 83 | 110 | 3.0 | 11.0 | 0.00 | 0.00 | 0.00 | 76 | 1016.2 |
| 20260903183504 | 83 | 108 | 3.0 | 13.0 | 0.00 | 0.00 | 0.00 | 75 | 1016.3 |
| 20260903183004 | 83 | 85 | 3.0 | 13.0 | 0.00 | 0.00 | 0.00 | 73 | 1016.0 |
| 20260903182504 | 83 | 107 | 3.0 | 11.0 | 0.00 | 0.00 | 0.00 | 71 | 1016.0 |
| 20260903182217 | 83 | 104 | 3.0 | 11.0 | 0.00 | 0.00 | 0.00 | 70 | 1015.9 |
| 20260903181504 | 83 | 80 | 3.0 | 7.0 | 0.00 | 0.00 | 0.00 | 67 | 1015.9 |
| 20260903181003 | 83 | 72 | 3.0 | 9.0 | 0.00 | 0.00 | 0.00 | 67 | 1015.8 |
| 20260903180503 | 83 | 78 | 3.0 | 9.0 | 0.00 | 0.00 | 0.00 | 66 | 1015.6 |
| 20260903180004 | 84 | 80 | 2.0 | 7.0 | 0.00 | 0.00 | 0.00 | 65 | 1015.7 |
| 20260903175504 | 84 | 87 | 2.0 | 6.0 | 0.00 | 0.00 | 0.00 | 63 | 1015.4 |
| 20260903175004 | 84 | 81 | 2.0 | 9.0 | 0.00 | 0.00 | 0.00 | 62 | 1015.4 |
| 20260903174717 | 84 | 78 | 2.0 | 9.0 | 0.00 | 0.00 | 0.00 | 62 | 1015.4 |
| 20260903174215 | 84 | 72 | 2.0 | 6.0 | 0.00 | 0.00 | 0.00 | 61 | 1015.3 |
| 20260903173504 | 84 | 70 | 2.0 | 8.0 | 0.00 | 0.00 | 0.00 | 60 | 1015.3 |
| 20260903173216 | 85 | 64 | 2.0 | 8.0 | 0.00 | 0.00 | 0.00 | 60 | 1015.2 |
| 20260903172503 | 85 | 59 | 2.0 | 5.0 | 0.00 | 0.00 | 0.00 | 56 | 1015.3 |
| 20260903172003 | 85 | 80 | 2.0 | 9.0 | 0.00 | 0.00 | 0.00 | 56 | 1015.2 |
| 20260903171504 | 85 | 101 | 2.0 | 9.0 | 0.00 | 0.00 | 0.00 | 56 | 1014.9 |
| 20260903171213 | 85 | 106 | 3.0 | 9.0 | 0.00 | 0.00 | 0.00 | 56 | 1015.1 |
| 20260903170504 | 85 | 85 | 3.0 | 7.0 | 0.00 | 0.00 | 0.00 | 58 | 1014.8 |
| 20260903170003 | 85 | 55 | 3.0 | 14.0 | 0.00 | 0.00 | 0.00 | 58 | 1014.9 |
| 20260903165504 | 85 | 52 | 3.0 | 14.0 | 0.00 | 0.00 | 0.00 | 58 | 1014.9 |
| 20260903165215 | 85 | 55 | 3.0 | 13.0 | 0.00 | 0.00 | 0.00 | 59 | 1015.0 |
| 20260903164713 | 85 | 62 | 3.0 | 10.0 | 0.00 | 0.00 | 0.00 | 60 | 1015.0 |
| 20260903164004 | 85 | 62 | 3.0 | 10.0 | 0.00 | 0.00 | 0.00 | 60 | 1014.9 |
| 20260903163503 | 86 | 71 | 3.0 | 9.0 | 0.00 | 0.00 | 0.00 | 59 | 1015.1 |
| 20260903163005 | 86 | 86 | 3.0 | 8.0 | 0.00 | 0.00 | 0.00 | 60 | 1015.2 |
| 20260903162504 | 86 | 65 | 2.0 | 7.0 | 0.00 | 0.00 | 0.00 | 62 | 1015.1 |
| 20260903162213 | 85 | 59 | 3.0 | 7.0 | 0.00 | 0.00 | 0.00 | 64 | 1015.1 |
| 20260903161503 | 85 | 45 | 4.0 | 17.0 | 0.00 | 0.00 | 0.00 | 65 | 1015.0 |
| 20260903161003 | 85 | 37 | 4.0 | 17.0 | 0.00 | 0.00 | 0.00 | 65 | 1015.2 |
| 20260903160503 | 85 | 41 | 4.0 | 14.0 | 0.00 | 0.00 | 0.00 | 65 | 1015.1 |
| 20260903160214 | 85 | 44 | 3.0 | 14.0 | 0.00 | 0.00 | 0.00 | 65 | 1015.2 |
| 20260903155503 | 86 | 50 | 4.0 | 8.0 | 0.00 | 0.00 | 0.00 | 64 | 1015.2 |
| 20260903155215 | 86 | 52 | 4.0 | 8.0 | 0.00 | 0.00 | 0.00 | 64 | 1015.2 |
| 20260903154713 | 86 | 70 | 4.0 | 14.0 | 0.00 | 0.00 | 0.00 | 63 | 1015.0 |
| 20260903154004 | 86 | 50 | 4.0 | 10.0 | 0.00 | 0.00 | 0.00 | 62 | 1014.9 |
| 20260903153504 | 86 | 49 | 4.0 | 8.0 | 0.00 | 0.00 | 0.00 | 62 | 1015.2 |
| 20260903153003 | 86 | 46 | 5.0 | 14.0 | 0.00 | 0.00 | 0.00 | 62 | 1015.0 |
| 20260903152504 | 86 | 52 | 5.0 | 14.0 | 0.00 | 0.00 | 0.00 | 64 | 1014.5 |
| 20260903152004 | 86 | 69 | 4.0 | 13.0 | 0.00 | 0.00 | 0.00 | 65 | 1015.0 |
| 20260903151503 | 86 | 64 | 5.0 | 18.0 | 0.00 | 0.00 | 0.00 | 65 | 1014.9 |
| 20260903151003 | 85 | 65 | 5.0 | 18.0 | 0.00 | 0.00 | 0.00 | 65 | 1015.0 |
| 20260903150503 | 87 | 59 | 4.0 | 14.0 | 0.00 | 0.00 | 0.00 | 65 | 1015.2 |
| 20260903150004 | 86 | 59 | 4.0 | 10.0 | 0.00 | 0.00 | 0.00 | 63 | 1014.9 |
| 20260903145503 | 87 | 77 | 4.0 | 10.0 | 0.00 | 0.00 | 0.00 | 57 | 1015.1 |
| 20260903145003 | 87 | 93 | 4.0 | 15.0 | 0.00 | 0.00 | 0.00 | 55 | 1015.2 |
| 20260903144503 | 87 | 101 | 4.0 | 15.0 | 0.00 | 0.00 | 0.00 | 54 | 1015.1 |
| 20260903144004 | 88 | 109 | 5.0 | 9.0 | 0.00 | 0.00 | 0.00 | 55 | 1015.2 |
| 20260903143503 | 89 | 95 | 4.0 | 17.0 | 0.00 | 0.00 | 0.00 | 52 | 1015.4 |
| 20260903143003 | 89 | 80 | 4.0 | 17.0 | 0.00 | 0.00 | 0.00 | 51 | 1015.2 |
| 20260903142504 | 89 | 84 | 4.0 | 13.0 | 0.00 | 0.00 | 0.00 | 51 | 1015.1 |
| 20260903142003 | 88 | 78 | 4.0 | 13.0 | 0.00 | 0.00 | 0.00 | 49 | 1015.2 |
| 20260903141717 | 89 | 77 | 5.0 | 17.0 | 0.00 | 0.00 | 0.00 | 51 | 1015.2 |
| 20260903141003 | 89 | 51 | 4.0 | 17.0 | 0.00 | 0.00 | 0.00 | 51 | 1014.9 |
| 20260903140503 | 90 | 34 | 4.0 | 15.0 | 0.00 | 0.00 | 0.00 | 51 | 1014.7 |
| 20260903140004 | 89 | 38 | 4.0 | 15.0 | 0.00 | 0.00 | 0.00 | 50 | 1014.8 |
| 20260903135714 | 89 | 48 | 4.0 | 15.0 | 0.00 | 0.00 | 0.00 | 50 | 1014.6 |
| 20260903135004 | 90 | 59 | 4.0 | 14.0 | 0.00 | 0.00 | 0.00 | 50 | 1014.7 |
| 20260903134503 | 90 | 55 | 4.0 | 7.0 | 0.00 | 0.00 | 0.00 | 50 | 1014.8 |
| 20260903134218 | 90 | 62 | 4.0 | 15.0 | 0.00 | 0.00 | 0.00 | 50 | 1014.5 |
| 20260903133504 | 90 | 69 | 5.0 | 15.0 | 0.00 | 0.00 | 0.00 | 50 | 1014.9 |
| 20260903133003 | 90 | 49 | 4.0 | 11.0 | 0.00 | 0.00 | 0.00 | 49 | 1014.5 |
| 20260903132717 | 91 | 41 | 4.0 | 9.0 | 0.00 | 0.00 | 0.00 | 50 | 1014.6 |
| 20260903132214 | 91 | 51 | 4.0 | 17.0 | 0.00 | 0.00 | 0.00 | 47 | 1014.6 |
| 20260903131504 | 91 | 58 | 4.0 | 13.0 | 0.00 | 0.00 | 0.00 | 49 | 1014.5 |
| 20260903131004 | 91 | 78 | 4.0 | 13.0 | 0.00 | 0.00 | 0.00 | 46 | 1014.7 |
| 20260903130504 | 91 | 90 | 4.0 | 11.0 | 0.00 | 0.00 | 0.00 | 49 | 1014.7 |
| 20260903130004 | 91 | 88 | 3.0 | 10.0 | 0.00 | 0.00 | 0.00 | 48 | 1014.8 |
| 20260903125504 | 90 | 90 | 4.0 | 13.0 | 0.00 | 0.00 | 0.00 | 51 | 1014.9 |
| 20260903125213 | 90 | 86 | 4.0 | 13.0 | 0.00 | 0.00 | 0.00 | 52 | 1014.7 |
| 20260903124504 | 90 | 70 | 3.0 | 8.0 | 0.00 | 0.00 | 0.00 | 52 | 1014.8 |
| 20260903124218 | 90 | 81 | 4.0 | 14.0 | 0.00 | 0.00 | 0.00 | 52 | 1014.8 |
| 20260903123504 | 91 | 82 | 3.0 | 14.0 | 0.00 | 0.00 | 0.00 | 50 | 1015.1 |
| 20260903123004 | 92 | 73 | 2.0 | 5.0 | 0.00 | 0.00 | 0.00 | 46 | 1015.0 |
| 20260903122712 | 91 | 74 | 2.0 | 10.0 | 0.00 | 0.00 | 0.00 | 46 | 1015.1 |
| 20260903122004 | 92 | 80 | 3.0 | 10.0 | 0.00 | 0.00 | 0.00 | 41 | 1015.2 |
| 20260903121503 | 92 | 95 | 2.0 | 7.0 | 0.00 | 0.00 | 0.00 | 41 | 1015.1 |
| 20260903121216 | 91 | 100 | 3.0 | 7.0 | 0.00 | 0.00 | 0.00 | 41 | 1015.3 |
| 20260903120504 | 92 | 95 | 3.0 | 9.0 | 0.00 | 0.00 | 0.00 | 39 | 1015.2 |
| 20260903120003 | 91 | 100 | 3.0 | 9.0 | 0.00 | 0.00 | 0.00 | 39 | 1015.2 |
| 20260903115715 | 92 | 105 | 2.0 | 9.0 | 0.00 | 0.00 | 0.00 | 40 | 1015.2 |
| 20260903115003 | 90 | 69 | 2.0 | 6.0 | 0.00 | 0.00 | 0.00 | 39 | 1015.4 |
| 20260903114504 | 91 | 96 | 2.0 | 5.0 | 0.00 | 0.00 | 0.00 | 41 | 1015.2 |
| 20260903114005 | 90 | 121 | 4.0 | 10.0 | 0.00 | 0.00 | 0.00 | 44 | 1015.3 |
| 20260903113504 | 90 | 101 | 4.0 | 10.0 | 0.00 | 0.00 | 0.00 | 44 | 1015.5 |
| 20260903113003 | 90 | 85 | 3.0 | 9.0 | 0.00 | 0.00 | 0.00 | 46 | 1015.4 |
| 20260903112504 | 90 | 101 | 3.0 | 9.0 | 0.00 | 0.00 | 0.00 | 47 | 1015.3 |
| 20260903112004 | 90 | 93 | 2.0 | 9.0 | 0.00 | 0.00 | 0.00 | 46 | 1015.5 |
| 20260903111503 | 89 | 84 | 2.0 | 7.0 | 0.00 | 0.00 | 0.00 | 45 | 1015.7 |
| 20260903111004 | 89 | 74 | 2.0 | 7.0 | 0.00 | 0.00 | 0.00 | 48 | 1015.6 |
| 20260903110504 | 90 | 59 | 1.0 | 6.0 | 0.00 | 0.00 | 0.00 | 47 | 1015.6 |
| 20260903110004 | 89 | 66 | 2.0 | 7.0 | 0.00 | 0.00 | 0.00 | 48 | 1015.6 |
| 20260903105504 | 90 | 103 | 2.0 | 7.0 | 0.00 | 0.00 | 0.00 | 49 | 1015.4 |
| 20260903105214 | 91 | 112 | 2.0 | 7.0 | 0.00 | 0.00 | 0.00 | 49 | 1015.5 |
| 20260903104717 | 90 | 103 | 3.0 | 9.0 | 0.00 | 0.00 | 0.00 | 48 | 1015.5 |
| 20260903104005 | 90 | 98 | 2.0 | 7.0 | 0.00 | 0.00 | 0.00 | 49 | 1015.8 |
| 20260903103717 | 90 | 100 | 2.0 | 7.0 | 0.00 | 0.00 | 0.00 | 48 | 1015.8 |
| 20260903103003 | 91 | 132 | 2.0 | 6.0 | 0.00 | 0.00 | 0.00 | 46 | 1015.8 |
| 20260903102503 | 93 | 142 | 2.0 | 6.0 | 0.00 | 0.00 | 0.00 | 44 | 1015.9 |
| 20260903102004 | 92 | 123 | 2.0 | 8.0 | 0.00 | 0.00 | 0.00 | 46 | 1015.9 |
| 20260903101503 | 91 | 127 | 2.0 | 8.0 | 0.00 | 0.00 | 0.00 | 47 | 1015.9 |
| 20260903101004 | 93 | 142 | 2.0 | 6.0 | 0.00 | 0.00 | 0.00 | 44 | 1016.0 |
| 20260903100503 | 92 | 105 | 2.0 | 8.0 | 0.00 | 0.00 | 0.00 | 45 | 1016.0 |
| 20260903100004 | 91 | 98 | 2.0 | 8.0 | 0.00 | 0.00 | 0.00 | 45 | 1016.1 |
| 20260903095716 | 93 | 122 | 2.0 | 8.0 | 0.00 | 0.00 | 0.00 | 44 | 1016.2 |
| 20260903095003 | 92 | 158 | 2.0 | 4.0 | 0.00 | 0.00 | 0.00 | 42 | 1016.1 |
| 20260903094503 | 92 | 155 | 2.0 | 6.0 | 0.00 | 0.00 | 0.00 | 43 | 1016.2 |
| 20260903094003 | 93 | 177 | 2.0 | 6.0 | 0.00 | 0.00 | 0.00 | 39 | 1016.4 |
| 20260903093503 | 93 | 182 | 1.0 | 3.0 | 0.00 | 0.00 | 0.00 | 39 | 1016.3 |
| 20260903093004 | 93 | 173 | 2.0 | 7.0 | 0.00 | 0.00 | 0.00 | 43 | 1016.4 |
| 20260903092503 | 94 | 172 | 2.0 | 7.0 | 0.00 | 0.00 | 0.00 | 39 | 1016.2 |
| 20260903092217 | 94 | 147 | 1.0 | 4.0 | 0.00 | 0.00 | 0.00 | 37 | 1016.4 |
| 20260903091504 | 94 | 186 | 1.0 | 4.0 | 0.00 | 0.00 | 0.00 | 37 | 1016.5 |
| 20260903091213 | 93 | 179 | 2.0 | 4.0 | 0.00 | 0.00 | 0.00 | 36 | 1016.6 |
| 20260903090503 | 92 | 177 | 2.0 | 6.0 | 0.00 | 0.00 | 0.00 | 38 | 1016.6 |
| 20260903090003 | 91 | 195 | 2.0 | 6.0 | 0.00 | 0.00 | 0.00 | 40 | 1016.7 |
| 20260903085503 | 92 | 192 | 2.0 | 5.0 | 0.00 | 0.00 | 0.00 | 40 | 1016.7 |
| 20260903085215 | 92 | 185 | 2.0 | 6.0 | 0.00 | 0.00 | 0.00 | 42 | 1016.5 |
| 20260903084503 | 91 | 186 | 2.0 | 6.0 | 0.00 | 0.00 | 0.00 | 43 | 1016.6 |
| 20260903084216 | 92 | 190 | 2.0 | 4.0 | 0.00 | 0.00 | 0.00 | 43 | 1016.9 |
| 20260903083504 | 91 | 192 | 2.0 | 4.0 | 0.00 | 0.00 | 0.00 | 43 | 1016.7 |
| 20260903083003 | 92 | 184 | 1.0 | 3.0 | 0.00 | 0.00 | 0.00 | 44 | 1016.7 |
| 20260903082504 | 93 | 197 | 1.0 | 5.0 | 0.00 | 0.00 | 0.00 | 44 | 1016.7 |
| 20260903082003 | 90 | 201 | 2.0 | 6.0 | 0.00 | 0.00 | 0.00 | 44 | 1016.8 |
| 20260903081503 | 89 | 199 | 2.0 | 6.0 | 0.00 | 0.00 | 0.00 | 48 | 1016.7 |
| 20260903081003 | 89 | 194 | 2.0 | 6.0 | 0.00 | 0.00 | 0.00 | 48 | 1016.9 |
| 20260903080503 | 89 | 192 | 2.0 | 6.0 | 0.00 | 0.00 | 0.00 | 49 | 1016.7 |
| 20260903080004 | 90 | 199 | 1.0 | 7.0 | 0.00 | 0.00 | 0.00 | 49 | 1016.5 |
| 20260903075504 | 89 | 200 | 2.0 | 7.0 | 0.00 | 0.00 | 0.00 | 49 | 1016.5 |
| 20260903075004 | 89 | 197 | 2.0 | 6.0 | 0.00 | 0.00 | 0.00 | 50 | 1016.6 |
| 20260903074504 | 88 | 198 | 2.0 | 6.0 | 0.00 | 0.00 | 0.00 | 52 | 1016.7 |
| 20260903074003 | 87 | 196 | 2.0 | 6.0 | 0.00 | 0.00 | 0.00 | 54 | 1016.7 |
| 20260903073503 | 87 | 193 | 2.0 | 6.0 | 0.00 | 0.00 | 0.00 | 55 | 1016.7 |
| 20260903073217 | 89 | 193 | 2.0 | 4.0 | 0.00 | 0.00 | 0.00 | 55 | 1016.6 |
| 20260903072503 | 88 | 189 | 2.0 | 4.0 | 0.00 | 0.00 | 0.00 | 55 | 1016.6 |
| 20260903072213 | 88 | 187 | 2.0 | 4.0 | 0.00 | 0.00 | 0.00 | 56 | 1016.5 |
| 20260903071503 | 87 | 189 | 1.0 | 3.0 | 0.00 | 0.00 | 0.00 | 55 | 1016.6 |
| 20260903071214 | 87 | 192 | 2.0 | 3.0 | 0.00 | 0.00 | 0.00 | 57 | 1016.7 |
| 20260903070503 | 88 | 190 | 1.0 | 3.0 | 0.00 | 0.00 | 0.00 | 54 | 1016.7 |
| 20260903070004 | 88 | 174 | 1.0 | 3.0 | 0.00 | 0.00 | 0.00 | 56 | 1016.7 |
| 20260903065503 | 88 | 163 | 0.0 | 2.0 | 0.00 | 0.00 | 0.00 | 56 | 1016.6 |
| 20260903065004 | 88 | 194 | 0.0 | 2.0 | 0.00 | 0.00 | 0.00 | 55 | 1016.7 |
| 20260903064503 | 88 | 195 | 1.0 | 2.0 | 0.00 | 0.00 | 0.00 | 58 | 1016.7 |
| 20260903064003 | 88 | 184 | 0.0 | 2.0 | 0.00 | 0.00 | 0.00 | 60 | 1016.6 |
| 20260903063504 | 88 | 178 | 0.0 | 2.0 | 0.00 | 0.00 | 0.00 | 59 | 1016.5 |
| 20260903063213 | 87 | 178 | 0.0 | 2.0 | 0.00 | 0.00 | 0.00 | 59 | 1016.5 |
| 20260903062504 | 87 | 189 | 0.0 | 2.0 | 0.00 | 0.00 | 0.00 | 59 | 1016.7 |
| 20260903062003 | 86 | 175 | 1.0 | 2.0 | 0.00 | 0.00 | 0.00 | 61 | 1016.9 |
| 20260903061503 | 86 | 176 | 1.0 | 2.0 | 0.00 | 0.00 | 0.00 | 61 | 1016.8 |
| 20260903061215 | 86 | 191 | 0.0 | 2.0 | 0.00 | 0.00 | 0.00 | 60 | 1016.8 |
| 20260903060505 | 86 | 187 | 0.0 | 1.0 | 0.00 | 0.00 | 0.00 | 59 | 1016.9 |
| 20260903060216 | 86 | 169 | 0.0 | 1.0 | 0.00 | 0.00 | 0.00 | 57 | 1016.9 |
| 20260903055714 | 85 | 165 | 0.0 | 1.0 | 0.00 | 0.00 | 0.00 | 58 | 1016.9 |
| 20260903055003 | 84 | 183 | 0.0 | 1.0 | 0.00 | 0.00 | 0.00 | 58 | 1016.9 |
| 20260903054504 | 84 | 164 | 0.0 | 1.0 | 0.00 | 0.00 | 0.00 | 59 | 1016.8 |
| 20260903054003 | 82 | 153 | 0.0 | 1.0 | 0.00 | 0.00 | 0.00 | 60 | 1016.8 |
| 20260903053504 | 82 | 153 | 0.0 | 1.0 | 0.00 | 0.00 | 0.00 | 61 | 1016.8 |
| 20260903053003 | 80 | 170 | 0.0 | 2.0 | 0.00 | 0.00 | 0.00 | 63 | 1016.8 |
| 20260903052503 | 80 | 171 | 0.0 | 2.0 | 0.00 | 0.00 | 0.00 | 63 | 1016.7 |
| 20260903052003 | 80 | 192 | 0.0 | 1.0 | 0.00 | 0.00 | 0.00 | 64 | 1017.0 |
| 20260903051503 | 79 | 189 | 0.0 | 1.0 | 0.00 | 0.00 | 0.00 | 65 | 1016.8 |
| 20260903051004 | 79 | 0 | 0.0 | 0.0 | 0.00 | 0.00 | 0.00 | 66 | 1016.7 |
| 20260903050714 | 78 | 197 | 0.0 | 1.0 | 0.00 | 0.00 | 0.00 | 66 | 1016.6 |
| 20260903050003 | 78 | 198 | 0.0 | 1.0 | 0.00 | 0.00 | 0.00 | 67 | 1016.8 |
| 20260903045503 | 78 | 201 | 0.0 | 1.0 | 0.00 | 0.00 | 0.00 | 67 | 1016.6 |
| 20260903045003 | 77 | 208 | 0.0 | 1.0 | 0.00 | 0.00 | 0.00 | 68 | 1016.8 |
| 20260903044503 | 77 | 216 | 0.0 | 1.0 | 0.00 | 0.00 | 0.00 | 69 | 1016.8 |
| 20260903044004 | 77 | 207 | 0.0 | 1.0 | 0.00 | 0.00 | 0.00 | 69 | 1016.6 |
| 20260903043504 | 77 | 203 | 0.0 | 1.0 | 0.00 | 0.00 | 0.00 | 69 | 1016.6 |
| 20260903043003 | 77 | 193 | 0.0 | 1.0 | 0.00 | 0.00 | 0.00 | 69 | 1016.7 |
| 20260903042504 | 77 | 185 | 0.0 | 1.0 | 0.00 | 0.00 | 0.00 | 69 | 1016.5 |
| 20260903042004 | 77 | 181 | 0.0 | 1.0 | 0.00 | 0.00 | 0.00 | 70 | 1016.7 |
| 20260903041503 | 77 | 179 | 0.0 | 1.0 | 0.00 | 0.00 | 0.00 | 70 | 1016.7 |
| 20260903041003 | 77 | 182 | 0.0 | 1.0 | 0.00 | 0.00 | 0.00 | 70 | 1016.7 |
| 20260903040503 | 77 | 192 | 0.0 | 1.0 | 0.00 | 0.00 | 0.00 | 71 | 1016.6 |
| 20260903040008 | 77 | 192 | 0.0 | 1.0 | 0.00 | 0.00 | 0.00 | 71 | 1016.8 |
| 20260903035715 | 77 | 190 | 0.0 | 1.0 | 0.00 | 0.00 | 0.00 | 71 | 1016.7 |
| 20260903035003 | 78 | 217 | 0.0 | 1.0 | 0.00 | 0.00 | 0.00 | 71 | 1016.8 |
| 20260903034503 | 78 | 218 | 0.0 | 1.0 | 0.00 | 0.00 | 0.00 | 71 | 1016.5 |
| 20260903034004 | 78 | 212 | 0.0 | 1.0 | 0.00 | 0.00 | 0.00 | 72 | 1016.7 |
| 20260903033504 | 78 | 201 | 0.0 | 1.0 | 0.00 | 0.00 | 0.00 | 72 | 1016.7 |
| 20260903033003 | 78 | 201 | 0.0 | 1.0 | 0.00 | 0.00 | 0.00 | 72 | 1016.7 |
| 20260903032713 | 78 | 217 | 0.0 | 1.0 | 0.00 | 0.00 | 0.00 | 73 | 1016.7 |
| 20260903032004 | 78 | 243 | 0.0 | 1.0 | 0.00 | 0.00 | 0.00 | 73 | 1016.9 |
| 20260903031714 | 78 | 250 | 0.0 | 1.0 | 0.00 | 0.00 | 0.00 | 72 | 1016.7 |
| 20260903031003 | 78 | 250 | 0.0 | 1.0 | 0.00 | 0.00 | 0.00 | 73 | 1016.6 |
| 20260903030503 | 78 | 223 | 0.0 | 1.0 | 0.00 | 0.00 | 0.00 | 72 | 1016.6 |